Louisville, KY

9:34 AM EST on February 09, 2016 (GMT -0500)
Louisville International-Standiford

Weather History for KSDF - January, 2014

Change the Weather History Date:

Tuesday, January 21, 2014

  Actual Average Record
Temperature  
Mean Temperature 24 °F 35 °F  
Max Temperature 38 °F 43 °F 72 °F (1906)
Min Temperature 9 °F 27 °F -11 °F (1985)
Degree Days  
Heating Degree Days 41 30  
Month to date heating degree days 695 630  
Since 1 July heating degree days 2336 2206  
Cooling Degree Days 0 0  
Month to date cooling degree days 0 0  
Year to date cooling degree days 0 0  
Moisture  
Dew Point 19 °F    
Average Humidity 71    
Maximum Humidity 96    
Minimum Humidity 46    
Precipitation  
Precipitation 0.15 in 0.10 in 3.68 in (1937)
Month to date precipitation 2.28 2.19  
Year to date precipitation 2.28 2.19  
Snow  
Snow 3.80 in 0.10 in 5.00 in (1926)
Month to date snowfall 6.6 2.3  
Since 1 July snowfall 12.4 5.1  
Snow Depth 1.00 in    
Sea Level Pressure  
Sea Level Pressure 29.95 in    
Wind  
Wind Speed 13 mph (NNW)    
Max Wind Speed 33 mph    
Max Gust Speed 41 mph    
Visibility 4 miles    
Events Fog , Snow    
T = Trace of Precipitation, MM = Missing Value Source: NWS Daily Summary

Daily Weather History Graph

Daily Weather History Graph

Search for Another Location

Airport or City:

Trip Planner

Search our weather history database for the weather conditions in past years. The results will help you decide how hot, cold, wet, or windy it might be!

Date:

Astronomy

Jan. 21, 2014 Rise Set
Actual Time 7:55 AM EST 5:53 PM EST
Civil Twilight 7:27 AM EST 6:21 PM EST
Nautical Twilight 6:54 AM EST 6:54 PM EST
Astronomical Twilight 6:23 AM EST 7:25 PM EST
Moon 11:20 PM EST (1/21) 10:30 AM EST (1/21)
Length of Visible Light 10h 54m
Length of Day
9h 57m
Waning Gibbous, 75% of the Moon is Illuminated
Jan 21
Waning Gibbous
Jan 24
Last Quarter
Jan 30
New
Feb 6
First Quarter
Feb 14
Full

Hourly Weather History & Observations

Time (EST) Temp. Windchill Dew Point Humidity Pressure Visibility Wind Dir Wind Speed Gust Speed Precip Events Conditions
12:56 AM 36.0 °F 33.3 °F 28.0 °F 73% 29.86 in 10.0 mi North 3.5 mph - N/A   Overcast
1:56 AM 36.0 °F - 28.0 °F 73% 29.83 in 10.0 mi Calm Calm - N/A   Overcast
2:39 AM 35.6 °F 31.7 °F 30.2 °F 81% 29.82 in 4.0 mi North 4.6 mph - 0.00 in Snow Light Snow
2:44 AM 33.8 °F 29.6 °F 30.2 °F 87% 29.82 in 2.5 mi North 4.6 mph - 0.00 in Snow Light Snow
2:51 AM 33.8 °F 29.6 °F 30.2 °F 87% 29.82 in 1.5 mi NNW 4.6 mph - 0.01 in Snow Light Snow
2:56 AM 33.1 °F 30.0 °F 30.9 °F 92% 29.83 in 1.2 mi NNW 3.5 mph - 0.01 in Snow Light Snow
3:01 AM 33.8 °F 30.8 °F 30.2 °F 87% 29.82 in 1.0 mi NNW 3.5 mph - 0.00 in Snow Light Snow
3:12 AM 33.8 °F - 32.0 °F 93% 29.80 in 0.8 mi Calm Calm - 0.01 in Snow Light Snow
3:20 AM 33.8 °F - 32.0 °F 93% 29.80 in 1.2 mi Calm Calm - 0.02 in Snow Light Snow
3:29 AM 33.8 °F - 32.0 °F 93% 29.80 in 1.5 mi Calm Calm - 0.02 in Snow Light Snow
3:35 AM 33.8 °F - 32.0 °F 93% 29.79 in 2.0 mi Calm Calm - 0.02 in Snow Light Snow
3:39 AM 33.8 °F - 32.0 °F 93% 29.79 in 2.0 mi Calm Calm - 0.02 in Snow Light Snow
3:56 AM 33.1 °F - 32.0 °F 96% 29.79 in 2.5 mi Calm Calm - 0.02 in Snow Light Snow
4:33 AM 33.8 °F 27.7 °F 30.2 °F 87% 29.79 in 2.5 mi WNW 6.9 mph - 0.00 in Snow Light Snow
4:46 AM 33.8 °F 28.6 °F 30.2 °F 87% 29.80 in 1.8 mi NW 5.8 mph - 0.00 in Snow Light Snow
4:50 AM 33.8 °F 28.6 °F 32.0 °F 93% 29.80 in 1.2 mi WNW 5.8 mph - 0.00 in Snow Light Snow
4:56 AM 33.1 °F 28.7 °F 32.0 °F 96% 29.80 in 1.2 mi WNW 4.6 mph - 0.01 in Snow Light Snow
5:06 AM 33.8 °F 29.6 °F 32.0 °F 93% 29.79 in 1.0 mi WNW 4.6 mph - 0.00 in Snow Light Snow
5:18 AM 33.8 °F - 32.0 °F 93% 29.79 in 0.8 mi Calm Calm - 0.01 in Snow Light Snow
5:29 AM 33.8 °F 30.8 °F 32.0 °F 93% 29.79 in 0.8 mi WNW 3.5 mph - 0.02 in Snow Light Snow
5:46 AM 33.8 °F 29.6 °F 32.0 °F 93% 29.79 in 0.8 mi West 4.6 mph - 0.03 in Snow Light Snow
5:54 AM 33.8 °F 29.6 °F 32.0 °F 93% 29.79 in 1.2 mi West 4.6 mph - 0.03 in Snow Light Snow
5:56 AM 33.1 °F 28.7 °F 32.0 °F 96% 29.80 in 1.2 mi West 4.6 mph - 0.03 in Snow Light Snow
6:46 AM 33.8 °F 29.6 °F 32.0 °F 93% 29.80 in 0.8 mi WNW 4.6 mph - 0.03 in Snow Light Snow
6:56 AM 33.1 °F 30.0 °F 32.0 °F 96% 29.81 in 0.8 mi NW 3.5 mph - 0.03 in Snow Light Snow
7:11 AM 33.8 °F 29.6 °F 32.0 °F 93% 29.80 in 1.0 mi NNW 4.6 mph - 0.01 in Snow Light Snow
7:19 AM 33.8 °F 29.6 °F 32.0 °F 93% 29.80 in 0.8 mi NNW 4.6 mph - 0.02 in Snow Light Snow
7:33 AM 33.8 °F 28.6 °F 32.0 °F 93% 29.81 in 0.8 mi NNW 5.8 mph - 0.03 in Snow Light Snow
7:42 AM 30.2 °F 15.4 °F 30.2 °F 100% 29.82 in 0.5 mi North 28.8 mph 35.7 mph 0.04 in Fog , Snow Snow
7:51 AM 26.6 °F 11.4 °F 23.0 °F 86% 29.84 in 1.0 mi North 25.3 mph 39.1 mph 0.04 in Snow Light Snow
7:56 AM 25.0 °F 9.2 °F 21.9 °F 88% 29.87 in 1.5 mi North 25.3 mph 36.8 mph 0.04 in Snow Light Snow
8:00 AM 24.8 °F 9.0 °F 21.2 °F 86% 29.86 in 1.5 mi North 25.3 mph 36.8 mph 0.00 in Snow Light Snow
8:15 AM 21.2 °F 4.2 °F 19.4 °F 93% 29.87 in 0.8 mi NNW 25.3 mph 38.0 mph 0.00 in Snow Light Snow
8:26 AM 21.2 °F 4.2 °F 17.6 °F 86% 29.89 in 0.2 mi NNW 25.3 mph 33.4 mph 0.00 in Fog , Snow Heavy Snow
8:40 AM 19.4 °F 0.5 °F 17.6 °F 93% 29.90 in 0.1 mi NNW 29.9 mph 36.8 mph 0.00 in Fog , Snow Heavy Snow
8:48 AM 19.4 °F 1.4 °F 15.8 °F 86% 29.91 in 0.2 mi North 26.5 mph 36.8 mph 0.01 in Fog , Snow Heavy Snow
8:56 AM 19.0 °F 0.0 °F 15.1 °F 85% 29.94 in 0.2 mi NNW 29.9 mph 40.3 mph 0.01 in Fog , Snow Heavy Snow
9:07 AM 17.6 °F -2.2 °F 14.0 °F 86% 29.94 in 0.5 mi North 31.1 mph 41.4 mph 0.00 in Fog , Snow Snow
9:24 AM 17.6 °F 0.5 °F 14.0 °F 86% 29.96 in 0.5 mi NNW 21.9 mph 32.2 mph 0.00 in Fog , Snow Snow
9:52 AM 17.6 °F -1.6 °F 12.2 °F 79% 29.99 in 0.5 mi NNW 28.8 mph 34.5 mph 0.00 in Fog , Snow Snow
9:56 AM 17.1 °F -1.4 °F 12.9 °F 84% 30.01 in 0.5 mi North 25.3 mph 34.5 mph 0.00 in Snow Snow
10:10 AM 17.6 °F -0.6 °F 14.0 °F 86% 30.01 in 1.0 mi North 25.3 mph 39.1 mph 0.00 in Snow Light Snow
10:27 AM 15.8 °F -3.7 °F 10.4 °F 79% 30.02 in 0.8 mi NNW 27.6 mph 34.5 mph 0.00 in Snow Light Snow
10:35 AM 15.8 °F -1.9 °F 10.4 °F 79% 30.03 in 1.0 mi NNW 21.9 mph 35.7 mph 0.00 in Snow Light Snow
10:56 AM 16.0 °F -3.5 °F 10.9 °F 81% 30.07 in 1.0 mi North 27.6 mph 35.7 mph 0.00 in Snow Light Snow
11:54 AM 17.6 °F 0.1 °F 10.4 °F 73% 30.09 in 1.8 mi NNW 23.0 mph 31.1 mph 0.00 in Snow Light Snow
11:56 AM 18.0 °F 0.9 °F 10.0 °F 71% 30.11 in 2.0 mi North 21.9 mph 31.1 mph 0.00 in Snow Light Snow
12:04 PM 17.6 °F 0.1 °F 10.4 °F 73% 30.09 in 3.0 mi NNW 23.0 mph 28.8 mph 0.00 in Snow Light Snow
12:27 PM 15.8 °F -1.9 °F 8.6 °F 73% 30.09 in 7.0 mi NNW 21.9 mph 31.1 mph 0.00 in Snow Light Snow
12:56 PM 18.0 °F 1.3 °F 9.0 °F 68% 30.11 in 10.0 mi North 20.7 mph 31.1 mph 0.00 in   Scattered Clouds
1:56 PM 18.0 °F 3.1 °F 5.0 °F 57% 30.13 in 10.0 mi NNW 16.1 mph 23.0 mph N/A   Scattered Clouds
2:56 PM 18.0 °F 0.6 °F -0.0 °F 45% 30.14 in 10.0 mi North 23.0 mph 31.1 mph N/A   Scattered Clouds
3:56 PM 17.1 °F 0.6 °F -0.0 °F 47% 30.16 in 10.0 mi North 19.6 mph 27.6 mph N/A   Partly Cloudy
4:56 PM 17.1 °F 2.0 °F -0.0 °F 47% 30.20 in 10.0 mi North 16.1 mph 25.3 mph N/A   Clear
5:56 PM 15.1 °F -1.1 °F -2.0 °F 47% 30.22 in 10.0 mi North 17.3 mph 26.5 mph N/A   Scattered Clouds
6:56 PM 14.0 °F -0.8 °F -2.0 °F 49% 30.24 in 10.0 mi North 13.8 mph - N/A   Partly Cloudy
7:56 PM 12.9 °F 1.6 °F -2.0 °F 51% 30.25 in 10.0 mi North 8.1 mph - N/A   Partly Cloudy
8:56 PM 10.9 °F -0.8 °F -2.0 °F 56% 30.25 in 10.0 mi North 8.1 mph - N/A   Scattered Clouds
9:56 PM 10.9 °F 0.2 °F -2.0 °F 56% 30.25 in 10.0 mi NNE 6.9 mph - N/A   Partly Cloudy
10:56 PM 10.0 °F 0.4 °F -2.0 °F 58% 30.26 in 10.0 mi North 5.8 mph - N/A   Partly Cloudy
11:56 PM 10.0 °F -0.9 °F -2.0 °F 58% 30.26 in 10.0 mi North 6.9 mph - N/A   Partly Cloudy